Date,TemperatureHighF,TemperatureAvgF,TemperatureLowF,DewpointHighF,DewpointAvgF,DewpointLowF,HumidityHigh,HumidityAvg,HumidityLow,PressureMaxIn,PressureMinIn,WindSpeedMaxMPH,WindSpeedAvgMPH,GustSpeedMaxMPH,PrecipitationSumIn
2013-1-1,36.5,34.1,32.9,36.0,32.9,26.9,98,95,75,30.12,29.94,4,0,4,0.33
2013-1-2,39.9,30.5,23.4,32.6,24.5,16.1,98,80,50,30.18,30.00,7,1,7,0.33
2013-1-3,48.9,27.1,17.1,29.9,20.2,14.6,96,79,38,30.30,30.12,8,1,8,0.33
2013-1-4,32.5,25.4,17.8,20.7,17.5,14.0,89,72,55,30.36,30.24,8,1,8,0.00
2013-1-5,49.5,30.2,13.5,31.9,20.5,10.3,97,71,37,30.39,30.21,7,1,7,0.00
2013-1-6,43.2,36.8,32.4,32.0,26.6,22.9,88,67,50,30.24,30.06,11,2,11,0.00
2013-1-7,55.4,33.4,19.2,25.9,19.6,14.9,88,60,31,30.44,30.24,11,2,11,0.00
2013-1-8,61.7,31.0,14.4,35.4,19.1,10.4,94,68,24,30.39,30.27,13,1,13,0.00
2013-1-9,26.8,25.6,24.4,24.5,22.4,20.0,91,88,83,30.33,30.30,3,0,3,0.00
2013-1-12,78.3,55.6,39.0,68.2,48.4,38.3,98,81,36,30.18,30.00,17,1,17,0.00
2013-1-13,77.2,54.9,40.8,57.7,48.0,40.3,98,81,40,30.09,29.94,14,2,14,0.24
2013-1-14,59.5,43.5,34.7,58.0,42.5,34.2,98,96,86,30.33,30.00,13,2,13,0.59
2013-1-15,39.0,36.8,35.1,38.5,36.3,34.5,98,98,97,30.27,30.00,7,1,7,0.70
2013-1-16,51.8,40.0,36.7,49.7,39.2,35.7,98,97,78,30.06,29.88,12,1,12,0.37
2013-1-17,37.9,33.9,26.2,37.4,30.3,24.5,98,87,70,30.27,30.03,6,1,6,0.00
2013-1-18,52.5,31.1,20.8,28.6,21.5,16.0,98,72,31,30.47,30.27,6,2,8,0.13
2013-1-19,56.3,36.0,16.9,36.9,19.0,14.2,98,57,27,30.39,30.06,20,4,20,0.13
2013-1-20,59.5,37.1,21.4,32.1,20.8,12.1,91,56,27,30.12,30.03,15,2,15,0.13
2013-1-21,45.9,27.7,16.7,23.4,10.3,0.5,90,53,26,30.12,29.91,26,3,26,0.13
2013-1-22,30.2,16.8,9.3,3.1,-4.2,-11.5,45,39,29,30.27,30.09,15,3,15,0.13
2013-1-23,28.4,18.8,9.9,6.7,-0.3,-9.2,49,43,31,30.30,30.09,13,3,13,0.13
2013-1-24,31.6,18.6,6.8,10.9,1.6,-8.7,67,47,35,30.47,30.12,12,3,12,0.00
2013-1-25,32.4,23.0,10.0,28.9,14.5,-5.7,93,71,43,30.44,30.00,13,2,13,0.00
2013-1-26,32.7,28.0,24.4,25.0,19.7,16.4,85,71,57,30.39,30.09,12,2,12,0.00
2013-1-27,57.9,31.3,8.8,29.7,18.8,5.8,91,64,28,30.44,30.33,8,1,8,0.21
2013-1-28,68.0,47.5,33.8,50.0,40.8,29.1,98,80,44,30.33,30.12,18,4,18,0.20
2013-1-29,73.8,56.3,44.4,52.4,46.7,40.0,98,74,42,30.18,29.91,23,3,23,0.00
2013-1-30,69.6,57.3,45.7,56.1,51.0,39.9,98,81,52,29.91,29.41,26,4,26,1.54
2013-1-31,45.0,31.3,27.9,39.5,18.6,10.9,86,59,45,29.91,29.41,17,5,29,0.04
2013-2-1,34.9,17.7,-1.3,26.9,2.9,-17.9,90,54,31,30.33,29.82,17,3,17,0.00
2013-2-2,37.8,18.3,-1.8,25.2,6.9,-18.4,87,62,36,30.36,30.00,13,2,13,0.00
2013-2-3,32.7,29.3,24.8,25.2,21.5,17.0,90,73,62,30.00,29.88,13,1,13,0.00
2013-2-4,48.6,29.9,9.7,27.6,16.2,3.1,82,58,35,30.12,29.88,19,3,19,16.88
2013-2-5,52.7,41.2,35.2,33.6,28.7,22.1,84,62,46,29.97,29.88,15,3,15,0.05
2013-2-6,60.1,40.5,25.0,30.8,26.2,20.0,91,61,28,30.24,29.97,13,2,13,0.00
2013-2-7,57.0,39.2,26.1,34.6,29.0,23.0,93,70,37,30.24,30.00,15,2,15,0.00
2013-2-8,48.4,38.0,31.1,42.2,31.5,21.3,94,77,60,30.21,29.88,16,2,16,0.03
2013-2-9,57.0,33.0,18.0,22.2,15.9,9.5,79,52,25,30.36,30.18,12,2,12,0.00
2013-2-10,64.0,39.1,15.8,38.0,21.6,10.7,89,58,19,30.33,30.00,15,3,15,0.05
2013-2-11,62.6,52.8,41.2,49.9,34.7,14.6,86,54,27,30.06,29.88,23,5,23,0.00
2013-2-12,64.6,42.6,27.9,26.5,21.3,16.0,74,46,21,30.15,29.97,13,2,13,0.00
2013-2-13,34.0,32.5,30.4,26.9,25.0,22.3,77,74,71,29.97,29.88,4,1,4,0.00
2013-2-15,57.7,34.5,23.0,42.1,28.5,20.2,97,81,40,30.09,29.97,13,2,13,0.00
2013-2-16,39.9,28.2,18.1,29.8,18.9,10.7,95,70,41,30.03,29.91,9,2,15,0.00
2013-2-17,40.3,19.0,3.9,14.2,3.4,-9.2,81,52,32,30.24,29.97,13,2,13,0.00
2013-2-18,58.5,28.6,1.2,30.6,10.5,-11.5,83,48,31,30.30,30.00,17,2,17,0.16
2013-2-19,54.1,40.5,29.8,38.9,24.5,9.7,90,56,30,30.03,29.82,25,5,25,0.21
2013-2-20,43.7,29.1,20.7,15.6,9.5,6.5,55,44,31,30.21,30.00,20,3,20,0.00
2013-2-21,54.5,29.4,10.2,20.3,11.9,3.0,83,51,26,30.27,30.12,8,1,8,0.00
2013-2-22,58.5,43.0,33.4,39.0,33.4,17.3,93,71,46,30.18,30.00,15,3,15,0.21
2013-2-23,72.9,46.7,33.6,47.6,35.1,30.2,98,70,28,30.03,29.82,15,2,15,0.00
2013-2-24,57.4,37.3,21.9,31.6,22.1,13.1,97,60,27,30.12,29.88,13,2,13,0.00
2013-2-25,62.8,34.4,16.9,28.1,20.2,12.6,92,62,25,30.18,30.00,10,1,10,0.00
2013-2-26,47.8,39.8,33.8,41.3,30.7,17.4,96,71,45,30.00,29.53,22,3,22,0.16
2013-2-27,46.4,39.1,33.6,40.3,31.8,26.1,95,76,50,29.76,29.59,18,3,18,0.21
2013-2-28,33.6,32.8,32.2,29.0,26.8,24.4,86,79,72,29.76,29.71,8,3,8,0.00
2013-3-2,35.2,27.9,23.9,19.7,17.1,14.1,78,64,46,29.97,29.88,11,3,11,0.00
2013-3-3,36.7,25.4,21.9,19.7,16.4,11.8,81,69,43,30.06,29.94,11,2,11,0.00
2013-3-4,55.2,33.1,22.3,24.5,15.7,9.6,75,52,26,30.15,30.00,8,2,8,0.21
2013-3-5,53.4,38.6,31.3,43.7,33.0,24.5,97,82,44,30.06,29.59,20,2,20,0.50
2013-3-6,36.5,31.4,27.7,28.1,24.5,19.9,89,76,56,30.15,29.65,16,0,16,0.00
2013-3-7,34.9,31.5,29.7,28.1,27.2,25.7,91,84,73,30.33,30.12,8,0,8,0.00
2013-3-8,52.5,35.5,22.3,27.3,23.0,17.5,91,64,35,30.39,30.24,12,2,12,0.08
2013-3-9,22.8,19.8,16.7,20.5,17.1,13.2,94,89,85,30.39,30.30,4,0,4,0.00
2013-3-10,80.6,66.3,51.4,36.0,30.4,25.7,41,27,20,30.18,30.06,16,4,16,0.00
2013-3-11,61.0,54.5,48.2,49.7,38.0,27.5,96,56,37,30.09,29.82,24,6,24,0.20
2013-3-12,52.7,39.7,25.9,48.2,32.4,21.0,98,78,41,30.03,29.82,12,2,12,0.21
2013-3-13,43.0,31.7,26.1,32.2,22.8,13.2,97,70,47,30.21,30.00,23,3,23,0.09
2013-3-14,26.1,25.5,24.4,18.6,16.8,14.9,78,69,63,30.24,30.18,9,3,14,0.00
2013-3-16,78.6,64.1,46.8,53.0,44.0,40.2,83,51,28,29.94,29.68,24,4,24,0.08
2013-3-17,48.7,43.5,40.5,43.8,39.5,35.4,97,86,76,30.06,29.91,14,2,14,0.08
2013-3-18,49.6,41.9,37.6,43.6,36.4,31.4,98,82,55,30.03,29.76,20,3,20,0.25
2013-3-19,58.1,44.9,31.6,47.3,22.0,-0.7,98,48,16,30.12,29.76,31,4,31,19.95
2013-3-20,55.4,36.9,19.9,26.3,13.0,1.7,78,40,20,30.12,29.82,23,3,23,0.00
2013-3-21,38.7,24.1,12.2,20.4,12.3,5.0,83,62,36,30.00,29.85,15,3,15,0.04
2013-3-22,54.0,26.3,5.7,22.2,10.7,1.0,88,57,26,30.09,29.97,10,2,10,20.03
2013-3-23,59.2,37.6,19.4,23.6,19.7,13.0,83,53,25,30.06,29.91,7,1,7,0.00
2013-3-24,40.5,34.5,25.0,34.7,29.3,17.4,98,81,65,29.94,29.44,14,2,14,0.25
2013-3-25,44.1,33.8,30.6,34.2,26.8,19.7,98,77,45,29.85,29.47,17,2,17,0.25
2013-3-26,47.8,34.2,30.4,31.4,26.3,22.4,86,73,48,30.18,29.85,12,2,12,0.08
2013-3-27,50.0,34.7,29.8,29.4,24.3,18.2,92,67,39,30.27,30.15,16,2,16,0.17
2013-3-28,56.7,38.4,22.3,29.0,22.8,16.1,94,59,27,30.33,30.21,13,2,13,0.00
2013-3-29,65.5,37.9,18.1,34.6,21.2,13.6,93,58,24,30.36,30.21,13,1,13,0.00
2013-3-30,72.9,44.4,22.8,40.6,25.8,19.5,94,57,19,30.30,30.00,12,1,12,0.00
2013-3-31,56.7,47.4,38.8,49.7,41.9,30.3,97,82,63,30.03,29.82,19,2,19,0.25
2013-4-1,56.5,41.9,27.3,46.0,34.0,22.2,98,76,40,30.06,29.85,15,3,15,0.00
2013-4-2,58.1,35.9,21.4,25.9,17.6,7.0,94,56,19,30.24,30.06,12,2,12,0.00
2013-4-3,60.6,35.8,16.5,26.3,14.2,4.1,89,49,17,30.36,30.18,12,2,12,0.00
2013-4-4,51.4,35.4,22.5,34.1,22.5,11.6,91,64,26,30.33,29.97,13,2,13,0.41
2013-4-5,70.0,47.5,28.9,41.7,31.5,21.4,97,63,23,30.12,29.94,13,2,13,0.09
2013-4-6,77.9,50.4,24.1,38.2,25.7,19.6,94,50,13,30.24,30.09,12,2,13,0.00
2013-4-7,81.1,55.9,34.0,41.9,32.9,25.1,81,47,21,30.18,30.00,28,3,28,21.65
2013-4-8,83.3,59.4,39.0,49.6,40.5,35.4,90,57,22,30.15,30.00,17,2,17,0.00
2013-4-9,90.7,64.8,42.4,57.1,43.2,36.8,94,55,20,30.24,30.00,17,2,17,0.00
2013-4-10,97.5,67.6,44.2,60.4,45.0,36.0,98,54,18,30.15,29.94,17,2,17,0.00
2013-4-11,73.8,60.8,48.7,55.6,46.8,44.3,86,64,36,29.97,29.74,13,3,13,0.04
2013-4-12,73.8,60.5,44.8,60.5,45.5,27.8,98,62,28,29.97,29.65,18,3,18,0.37
2013-4-13,76.6,56.9,38.7,36.3,29.8,20.0,74,38,21,30.09,29.94,23,3,23,22.06
2013-4-14,87.1,58.9,30.2,45.8,31.7,23.1,91,45,12,30.18,29.97,12,2,12,0.00
2013-4-15,68.9,56.0,46.9,51.2,48.5,44.7,96,78,46,30.18,30.06,15,2,15,0.26
2013-4-16,97.2,64.2,42.1,64.7,48.3,41.4,98,65,23,30.30,30.12,12,2,12,0.08
2013-4-17,86.2,63.2,51.6,60.5,56.2,48.8,98,81,36,30.33,30.12,13,1,13,0.29
2013-4-18,87.8,65.5,45.3,68.0,49.6,44.7,98,63,30,30.15,29.88,22,4,22,0.00
2013-4-19,71.2,59.5,40.3,61.2,47.7,31.5,85,66,49,30.00,29.68,21,4,21,0.37
2013-4-20,68.7,46.4,28.2,34.8,25.3,16.2,80,48,21,30.39,30.00,15,3,15,0.00
2013-4-21,79.2,48.8,24.4,37.7,25.7,20.1,90,50,15,30.50,30.36,13,2,13,0.00
2013-4-22,77.7,52.1,30.2,36.5,27.5,18.5,90,45,17,30.44,30.24,14,2,14,0.00
2013-4-23,89.2,56.6,27.9,45.7,32.0,23.1,91,48,15,30.30,30.03,10,1,10,0.00
2013-4-24,60.1,49.6,42.4,39.2,37.2,36.0,78,63,46,30.09,30.03,6,1,7,0.00
2013-4-25,32.7,32.5,32.5,26.0,25.7,24.8,76,76,75,30.39,30.36,19,3,19,0.00
2013-4-26,84.0,52.7,27.0,46.6,30.0,23.2,98,52,17,30.47,30.33,9,1,9,23.14
2013-4-27,77.5,55.5,38.5,49.1,38.9,30.7,86,58,24,30.41,30.18,10,2,10,0.00
2013-4-28,67.8,56.8,49.1,51.0,47.3,43.7,97,72,45,30.21,30.00,14,3,14,0.25
2013-4-29,77.2,58.2,44.2,53.9,48.1,41.4,95,72,38,30.09,30.00,14,1,14,0.00
2013-4-30,93.6,62.9,39.6,68.1,45.6,39.0,98,63,20,30.21,30.06,11,1,11,0.00
2013-5-1,84.4,64.0,45.7,54.5,45.6,38.4,98,57,29,30.36,30.21,17,2,17,0.00
2013-5-2,83.3,63.9,54.1,47.9,44.9,40.6,73,52,29,30.33,30.24,12,3,12,0.00
2013-5-3,76.5,57.9,39.4,48.6,38.1,28.2,98,54,21,30.27,30.12,23,3,23,0.00
2013-5-4,80.2,58.7,42.4,44.1,36.5,29.3,75,46,20,30.18,30.03,21,4,21,0.00
2013-5-5,70.7,57.0,50.7,45.7,36.4,19.7,72,49,23,30.12,29.97,18,3,18,0.00
2013-5-6,64.9,55.9,50.0,54.8,50.1,45.0,98,82,59,30.00,29.91,20,2,20,0.50
2013-5-7,71.4,54.8,48.2,54.9,50.6,44.8,98,88,43,30.00,29.91,6,0,6,0.41
2013-5-8,72.7,56.2,45.1,58.8,51.4,44.3,98,86,45,30.09,29.91,6,1,6,0.92
2013-5-9,89.2,63.2,45.0,61.1,48.7,43.6,98,67,25,30.12,30.00,10,1,10,0.04
2013-5-10,85.6,63.8,48.7,62.8,52.9,47.0,98,74,31,30.09,29.94,15,2,15,0.00
2013-5-11,78.8,63.8,53.8,59.8,53.6,45.6,97,72,42,29.97,29.85,11,2,11,0.41
2013-5-12,66.6,49.6,41.7,47.3,39.3,25.7,88,71,25,30.06,29.91,12,2,12,0.04
2013-5-13,53.2,36.3,32.5,29.2,27.7,26.6,79,71,36,30.24,30.15,0,0,0,0.04
2013-5-14,33.1,29.4,27.0,28.8,26.4,23.3,91,88,79,30.24,30.18,2,0,2,0.00
2013-5-15,54.1,50.8,49.5,49.7,46.6,44.4,93,86,74,30.03,30.00,2,0,3,0.00
2013-5-17,68.7,63.3,61.5,58.7,56.1,53.6,90,78,60,30.15,30.12,4,0,4,0.00
2013-5-18,83.1,68.5,56.3,67.8,57.0,51.2,98,71,35,30.15,30.06,10,2,11,0.00
2013-5-19,90.7,67.9,61.0,70.8,61.9,56.2,98,83,40,30.12,30.03,7,1,7,1.08
2013-5-20,81.3,65.6,56.7,67.6,60.3,56.1,98,85,50,30.15,30.06,8,1,8,0.04
2013-5-21,102.4,76.7,53.2,75.0,59.3,50.6,98,63,20,30.12,29.94,29,2,29,0.21
2013-5-22,96.4,68.1,52.9,73.7,59.5,52.3,98,80,31,30.09,29.91,12,1,12,1.62
2013-5-23,66.6,66.6,66.6,64.5,64.5,64.5,93,93,93,29.94,29.94,0,0,0,1.62
2013-5-28,59.7,58.4,57.6,53.1,52.5,51.8,85,81,76,30.18,30.15,2,0,2,0.00
2013-5-29,100.0,72.4,52.7,67.6,54.4,46.1,98,63,20,30.27,30.15,10,1,10,0.00
2013-5-30,102.2,73.9,52.9,71.1,53.8,45.0,98,62,17,30.33,30.18,10,1,10,27.75
2013-5-31,99.7,73.6,52.2,70.8,55.0,48.4,98,62,19,30.27,30.09,8,1,9,0.00
2013-6-1,81.9,64.3,59.4,62.9,59.2,54.8,93,85,45,30.18,30.03,6,0,7,0.00
2013-6-2,79.9,71.4,66.2,65.8,59.6,54.6,83,67,54,30.03,29.97,12,2,12,0.00
2013-6-3,82.8,67.3,55.4,56.2,52.9,48.4,93,64,33,30.09,29.94,10,1,10,20.32
2013-6-4,98.4,70.1,52.5,61.3,51.3,42.1,98,62,18,30.15,30.06,7,1,7,0.00
2013-6-5,92.8,65.0,48.7,67.6,53.5,47.7,98,74,29,30.15,30.03,11,1,11,0.00
2013-6-8,96.1,72.9,57.4,63.9,54.7,45.7,98,62,21,30.15,29.94,9,1,9,0.53
2013-6-9,100.2,72.7,53.1,73.0,56.9,48.4,98,68,19,30.24,30.06,13,1,13,29.20
2013-6-10,82.4,68.3,61.2,67.9,62.1,54.6,98,83,42,30.12,29.94,13,2,13,0.62
2013-6-11,89.6,70.9,61.3,63.2,60.1,55.0,98,73,34,30.06,29.94,11,2,11,0.13
2013-6-12,101.1,75.0,58.8,75.1,63.8,57.8,98,75,29,30.09,29.94,10,1,10,0.29
2013-6-13,70.5,67.2,65.5,69.9,66.4,64.0,98,97,95,29.97,29.91,6,1,6,0.00
2013-6-21,102.9,78.9,55.8,72.9,58.4,48.7,98,59,19,30.33,30.24,8,1,8,0.00
2013-6-22,103.8,75.7,55.8,69.3,56.6,47.8,98,63,17,30.33,30.18,6,0,6,0.00
2013-6-23,102.0,75.4,56.3,74.4,57.7,47.0,98,64,19,30.30,30.18,6,1,6,0.00
2013-6-24,103.3,76.3,59.7,71.4,60.7,53.0,98,67,21,30.27,30.15,8,1,8,0.00
2013-6-25,102.2,76.7,63.3,69.3,63.3,56.4,98,70,26,30.24,30.06,9,1,9,0.00
2013-6-26,97.3,74.8,63.5,69.5,64.3,58.0,98,74,30,30.12,29.94,16,1,16,0.00
2013-6-27,79.2,70.9,66.7,70.2,64.7,61.1,98,81,62,29.97,29.79,8,2,10,0.24
2013-6-28,99.3,77.5,61.7,69.6,61.1,49.1,98,64,23,29.85,29.65,17,2,17,0.05
2013-6-29,94.8,71.6,57.0,69.5,57.2,48.9,98,68,27,29.76,29.65,13,1,13,0.04
2013-6-30,63.3,58.3,55.0,62.6,57.4,54.5,98,97,93,29.85,29.74,3,0,3,0.00
2013-7-10,68.0,67.6,67.3,67.2,66.9,66.7,98,98,96,30.09,30.00,6,0,6,1.20
2013-7-11,94.5,73.9,64.4,74.9,64.4,56.5,98,77,37,30.06,29.97,5,1,8,0.04
2013-7-12,66.0,65.4,64.8,64.7,64.2,63.3,97,96,94,30.03,30.00,1,0,1,0.00
2013-7-13,87.3,73.7,66.2,64.5,60.7,56.4,92,67,39,30.27,30.18,6,1,8,0.00
2013-7-14,94.1,76.9,64.2,67.1,62.2,55.2,97,66,31,30.39,30.24,14,2,14,0.00
2013-7-15,109.8,79.1,60.1,76.5,60.5,52.2,98,65,16,30.41,30.30,6,1,6,0.00
2013-7-16,108.0,80.1,59.9,82.0,61.8,52.2,98,65,18,30.41,30.30,7,1,7,0.00
2013-7-17,109.2,81.6,64.2,77.0,65.3,58.1,98,67,23,30.41,30.24,9,1,9,0.00
2013-7-18,109.2,81.9,69.4,73.2,67.9,59.2,98,69,24,30.33,30.18,9,1,9,0.00
2013-7-19,99.3,78.3,65.1,73.4,66.2,60.9,98,72,32,30.21,30.06,9,2,9,0.00
2013-7-20,100.0,79.1,66.2,69.9,64.8,58.4,98,68,28,30.12,29.97,8,2,9,36.38
2013-7-21,99.1,73.7,63.5,78.1,66.6,58.4,98,83,31,30.09,30.00,8,1,8,0.99
2013-7-22,93.9,74.3,66.9,70.7,67.0,61.4,98,81,40,30.03,29.88,9,1,9,0.50
2013-7-23,97.7,76.8,66.2,72.3,64.5,55.3,98,72,28,29.94,29.85,12,1,12,0.13
2013-7-24,97.0,72.2,58.5,68.4,60.7,53.2,98,73,26,30.03,29.85,8,1,9,0.21
2013-7-25,95.0,70.6,52.9,63.4,53.4,43.4,98,64,20,30.18,30.00,8,1,8,0.00
2013-7-26,101.1,70.4,49.1,66.2,54.2,47.5,98,66,21,30.18,30.06,9,1,9,0.00
2013-7-27,81.0,66.6,61.0,68.0,63.3,59.0,98,90,55,30.09,29.97,10,1,10,0.66
2013-7-28,90.7,70.8,55.9,66.0,57.8,48.4,98,70,29,30.15,29.94,8,1,10,38.95
2013-7-29,94.6,66.1,50.0,64.9,50.1,40.7,98,66,19,30.33,30.12,8,1,8,0.00
2013-7-30,100.6,69.7,45.9,65.8,50.6,40.7,98,63,16,30.33,30.21,6,1,6,0.00
2013-7-31,69.1,64.7,61.7,64.7,62.2,57.8,97,91,72,30.24,30.03,7,1,7,0.17
2013-8-1,93.4,71.8,60.3,71.1,62.6,54.5,98,77,32,30.06,29.97,8,1,8,0.08
2013-8-2,96.3,70.6,57.7,66.7,57.1,48.2,98,70,25,30.12,30.03,12,1,12,0.00
2013-8-3,95.2,72.2,58.5,71.9,59.3,51.9,98,71,28,30.12,30.03,14,1,14,0.00
2013-8-4,91.2,71.7,56.3,67.2,58.3,50.0,98,68,29,30.18,30.06,10,1,10,0.00
2013-8-5,97.7,70.5,54.5,67.1,54.3,46.0,98,66,21,30.18,30.06,6,1,6,0.00
2013-8-6,98.2,72.8,57.6,68.1,58.8,51.8,98,69,26,30.12,30.03,8,1,8,0.00
2013-8-7,89.2,70.4,61.2,75.1,65.1,56.6,98,86,45,30.12,30.06,12,1,12,0.58
2013-8-8,85.6,73.2,66.4,78.6,66.7,62.1,98,82,47,30.12,30.03,10,1,10,0.25
2013-8-9,95.2,77.7,67.6,70.5,66.2,60.1,98,73,36,30.15,30.03,13,2,13,0.17
2013-8-10,98.4,76.8,68.7,72.1,67.0,59.1,98,77,32,30.21,30.12,6,1,10,0.75
2013-8-11,90.9,75.1,68.4,71.6,67.8,60.9,98,81,41,30.24,30.12,8,1,10,0.28
2013-8-12,94.3,75.4,65.7,74.9,65.0,55.8,98,75,33,30.18,30.06,9,1,9,0.00
2013-8-19,94.1,71.0,62.2,70.5,63.5,56.3,98,81,33,30.21,30.15,6,1,6,0.00
2013-8-20,102.0,76.1,59.7,66.5,60.4,53.2,98,68,22,30.27,30.18,6,1,6,0.00
2013-8-21,91.6,72.8,62.6,71.8,63.7,59.4,98,77,39,30.30,30.18,9,1,9,0.00
2013-8-22,91.8,72.6,60.6,70.5,62.0,57.7,98,74,38,30.24,30.12,10,1,10,0.00
2013-8-23,94.6,73.0,61.0,76.1,62.2,54.7,98,75,31,30.21,30.06,9,1,9,0.00
2013-8-24,99.3,71.5,53.8,65.5,53.4,42.0,98,65,17,30.39,30.18,8,1,8,0.00
2013-8-25,95.5,66.2,47.5,68.1,51.0,43.3,98,68,20,30.47,30.36,9,1,9,0.00
2013-8-26,100.8,69.7,48.4,70.2,54.6,46.8,98,69,19,30.39,30.18,10,1,10,0.00
2013-8-27,61.2,60.4,60.1,58.6,58.3,57.9,93,93,92,30.24,30.21,1,0,1,0.00
2013-8-28,71.6,71.4,71.2,69.6,69.2,68.8,94,93,91,30.06,30.03,3,0,3,0.00
2013-8-29,99.9,78.1,65.7,74.4,65.7,56.6,98,73,27,30.12,30.00,4,1,8,0.00
2013-8-30,99.9,75.0,60.1,75.8,62.2,55.3,98,72,28,30.09,30.00,9,1,9,0.00
2013-8-31,96.1,72.1,59.7,75.1,63.0,59.2,98,77,37,30.03,29.94,7,1,10,0.00
2013-9-1,91.8,71.4,62.8,73.3,64.2,57.5,98,81,39,30.00,29.88,9,1,9,3.90
2013-9-2,95.9,75.1,63.5,73.1,64.1,55.3,98,74,31,30.00,29.88,12,2,12,0.00
2013-9-7,87.3,64.6,54.5,56.2,53.0,49.3,93,71,28,30.12,30.06,4,0,4,0.00
2013-9-8,97.9,70.5,52.7,66.5,57.8,50.6,97,71,27,30.12,30.03,7,0,7,0.00
2013-9-9,95.9,72.8,57.9,74.7,60.7,55.9,98,73,29,30.21,30.12,11,1,11,0.00
2013-9-10,100.8,74.7,60.4,73.2,62.1,55.3,98,73,26,30.30,30.18,9,1,9,0.00
2013-9-11,66.0,64.8,63.5,65.4,63.6,62.6,98,96,93,30.27,30.18,3,0,3,0.70
2013-9-12,94.6,71.4,61.7,70.0,63.8,55.2,98,82,33,30.18,29.94,12,1,12,0.17
2013-9-13,83.3,66.7,50.2,61.8,52.4,39.3,98,68,25,30.06,29.88,11,2,11,0.08
2013-9-19,73.9,69.5,66.2,64.6,60.8,58.4,89,74,62,30.21,30.12,8,2,8,0.13
2013-9-21,68.7,62.9,59.5,66.0,61.3,55.8,98,94,81,29.94,29.76,11,1,11,0.66
2013-9-22,81.9,61.3,46.2,62.8,50.3,42.4,98,73,30,30.06,29.85,7,1,9,0.66
2013-9-23,88.0,58.8,42.8,57.3,46.2,39.6,98,72,24,30.12,30.00,8,1,8,0.66
2013-9-24,93.7,58.3,37.8,65.9,47.4,36.6,98,75,24,30.15,29.94,8,1,8,0.00
2013-9-25,72.3,59.4,48.9,64.8,55.9,48.4,98,89,60,30.00,29.91,3,0,3,0.00
2013-9-26,94.1,66.5,49.5,60.7,53.9,42.3,98,73,20,30.12,29.94,7,1,7,0.00
2013-9-27,94.3,63.6,47.8,67.7,49.0,39.1,98,70,18,30.24,30.12,6,1,6,0.00
2013-9-28,92.3,59.4,41.0,66.2,46.5,39.7,98,71,21,30.30,30.18,10,1,10,0.00
2013-9-29,88.2,59.3,41.0,65.2,48.2,39.4,98,74,30,30.24,30.06,8,1,8,0.00
2013-9-30,83.1,64.1,56.5,59.7,56.0,49.2,98,79,35,30.12,30.00,6,0,8,0.00
2013-10-1,88.5,62.6,48.7,72.1,52.4,46.5,98,76,28,30.18,30.06,8,1,8,0.00
2013-10-2,94.5,63.9,45.5,72.8,51.5,44.7,98,73,23,30.24,30.09,8,1,8,0.00
2013-10-3,94.8,66.1,51.3,72.8,54.5,49.8,98,74,25,30.21,30.12,6,1,6,0.00
2013-10-4,91.8,65.9,51.4,76.0,56.4,50.7,98,78,32,30.21,30.12,8,1,8,0.00
2013-10-5,97.7,68.3,51.1,75.2,56.5,50.5,98,74,27,30.24,30.06,8,1,8,0.00
2013-10-6,92.3,68.8,51.3,70.8,54.1,48.8,98,67,26,30.09,29.88,11,2,11,0.00
2013-10-7,76.1,59.4,39.4,60.5,46.8,36.0,95,68,29,30.15,29.85,12,2,12,0.25
2013-10-8,81.1,51.1,33.1,60.8,37.9,32.6,98,71,22,30.27,30.15,13,1,13,0.00
2013-10-9,86.7,51.4,30.9,52.8,34.7,28.5,98,65,16,30.33,30.18,10,1,10,0.00
2013-10-10,39.2,37.7,36.7,38.2,34.7,33.1,96,89,84,30.21,30.18,2,0,2,0.00
2013-10-13,76.1,60.8,58.8,59.6,59.1,56.1,97,94,50,30.30,30.27,0,0,1,0.00
2013-10-14,84.2,64.9,56.3,63.4,56.7,51.3,98,79,39,30.30,30.18,4,0,5,0.00
2013-10-15,82.9,60.3,47.1,59.2,49.7,43.8,98,74,30,30.21,30.06,9,1,9,0.00
2013-10-16,72.1,59.0,48.4,62.0,52.0,45.6,98,81,45,30.09,29.97,10,1,10,0.00
2013-10-17,69.3,59.7,49.5,62.5,56.1,46.8,95,88,70,30.00,29.79,14,2,14,0.00
2013-10-18,76.3,52.6,36.9,56.1,41.6,33.2,98,74,25,30.12,29.97,7,1,7,0.00
2013-10-19,61.7,47.6,36.7,51.1,40.6,34.8,98,79,46,30.03,29.85,28,2,28,0.00
2013-10-20,72.7,44.5,26.8,44.0,30.2,24.8,98,66,22,30.24,30.00,8,1,8,0.00
2013-10-21,76.5,46.5,26.4,56.7,30.8,23.5,98,64,21,30.15,29.97,15,1,15,0.00
2013-10-22,50.5,43.7,35.4,49.2,39.8,31.8,97,87,71,30.03,29.88,6,0,6,0.00
2013-10-23,50.5,41.5,36.0,43.0,36.8,28.9,98,84,53,30.03,29.74,18,2,18,0.00
2013-10-24,50.4,37.6,30.6,33.7,28.9,21.3,94,72,39,30.21,30.00,14,2,14,0.79
2013-10-25,47.8,34.4,22.8,33.7,26.9,18.8,95,77,40,30.39,30.21,9,1,9,0.04
2013-10-26,64.4,38.0,17.8,37.8,20.9,14.3,96,58,22,30.36,30.03,16,2,16,0.00
2013-10-27,69.6,46.4,31.5,41.0,30.3,24.9,93,58,26,30.15,30.06,11,0,11,0.00
2013-10-28,57.4,44.1,30.0,50.9,40.8,25.9,97,88,70,30.30,30.12,3,0,3,0.00
2013-10-29,77.9,57.3,50.2,59.0,48.3,40.9,98,77,34,30.36,30.24,6,0,6,0.00
2013-10-30,64.8,56.4,50.0,59.2,54.1,48.2,98,92,76,30.27,30.15,6,0,6,0.00
2013-10-31,70.0,59.6,50.5,63.8,50.1,45.2,98,75,43,30.18,29.65,10,2,12,45.34
2013-11-1,79.0,61.2,40.6,59.8,46.1,34.6,94,63,25,29.82,29.62,29,2,29,0.00
2013-11-2,41.2,40.5,40.1,38.7,37.8,37.3,92,90,89,29.79,29.79,0,0,0,0.00
2013-11-6,55.9,53.6,39.9,44.4,42.7,37.5,91,67,61,30.09,30.06,5,2,5,0.00
2013-11-7,59.2,45.6,26.1,53.5,37.5,21.9,94,74,51,30.21,30.00,12,1,12,0.00
2013-11-8,55.9,35.0,22.1,31.0,21.7,13.2,97,64,26,30.36,30.18,12,0,12,0.00
2013-11-9,70.0,42.2,20.5,40.7,20.3,11.3,95,51,15,30.33,30.12,14,1,14,0.00
2013-11-10,68.2,45.4,22.6,32.0,23.2,14.7,74,44,20,30.36,30.18,20,1,20,2.28
2013-11-11,74.1,41.4,20.7,38.7,20.6,11.1,90,53,12,30.36,30.12,8,0,8,0.08
2013-11-12,52.2,33.4,22.3,35.0,23.6,13.4,86,69,35,30.50,30.09,11,1,11,0.00
2013-11-13,46.4,27.8,14.9,19.2,14.4,8.6,83,60,31,30.59,30.41,9,1,9,0.00
2013-11-14,32.0,21.7,17.4,17.6,13.9,11.7,88,72,47,30.44,30.27,0,0,0,0.00
2013-11-15,67.8,40.2,18.3,42.1,25.5,11.7,89,62,18,30.33,30.18,12,0,12,0.00
2013-11-16,73.9,50.7,38.7,53.9,42.7,36.3,96,77,38,30.30,30.12,9,0,9,0.00
2013-11-17,73.8,53.8,37.6,58.8,46.9,36.0,98,81,37,30.15,29.76,12,1,12,0.00
2013-11-18,68.5,50.9,39.2,48.6,31.5,19.7,98,54,23,30.09,29.79,19,2,19,0.00
2013-11-19,43.3,37.4,34.9,21.8,20.4,18.5,54,50,47,30.15,30.06,11,2,11,0.00
2013-11-20,30.9,28.3,26.2,18.8,18.0,17.3,72,65,58,30.39,30.36,3,0,3,0.00
2013-11-21,74.8,45.4,23.2,47.3,31.6,17.3,90,63,28,30.44,30.27,9,0,9,0.00
2013-11-22,61.9,54.8,46.8,56.8,50.1,40.8,95,85,65,30.33,30.12,10,0,10,0.00
2013-11-23,50.2,38.3,24.4,45.1,26.2,7.1,94,65,37,30.36,30.18,17,2,17,0.00
2013-11-24,34.9,20.9,9.3,8.9,0.3,-6.8,55,41,27,30.50,30.33,16,2,16,0.00
2013-11-25,56.3,29.6,9.7,26.6,9.3,-6.8,78,47,16,30.50,30.24,13,1,13,0.00
2013-11-26,43.0,36.8,32.5,42.5,34.5,25.5,98,91,78,30.27,29.74,6,0,6,0.00
2013-11-27,35.4,27.1,22.1,33.0,19.0,6.9,97,73,51,30.21,29.76,15,2,15,0.00
2013-11-28,49.6,27.5,18.5,20.6,12.6,7.1,85,56,28,30.47,30.21,10,1,10,0.00
2013-11-29,58.8,29.6,10.4,31.9,15.6,5.8,90,61,26,30.56,30.44,6,0,6,0.00
2013-11-30,25.3,25.3,25.3,13.8,13.8,13.8,61,61,61,30.53,30.53,0,0,0,0.00
2013-12-1,25.3,25.3,25.3,13.8,13.8,13.8,61,61,61,30.53,30.53,0,0,0,0.00
2013-12-2,25.3,25.3,25.3,13.8,13.8,13.8,61,61,61,30.53,30.53,0,0,0,0.00
2013-12-3,66.6,45.0,35.8,43.9,35.9,31.1,93,74,36,29.94,29.85,13,0,13,0.00
2013-12-4,74.7,51.5,31.8,51.5,39.7,29.8,98,69,31,30.03,29.91,10,2,10,0.00
2013-12-5,72.1,60.4,46.8,58.0,49.2,39.4,98,69,43,30.06,29.94,12,3,19,44.51
2013-12-6,58.1,40.3,34.9,52.0,39.0,34.4,98,95,86,30.21,29.97,9,2,9,2.95
2013-12-7,35.1,31.3,28.6,34.5,27.7,21.2,98,87,74,30.47,30.15,10,1,10,0.00
2013-12-8,38.1,34.0,29.1,37.6,30.2,22.6,98,86,75,30.44,30.09,10,0,10,0.04
2013-12-9,48.9,41.0,34.5,45.7,38.8,32.1,98,92,68,30.18,30.03,10,1,10,0.54
2013-12-10,43.3,28.9,12.6,32.8,21.8,8.6,92,76,42,30.30,30.00,10,1,10,0.04
2013-12-11,55.9,28.4,7.0,30.3,13.9,3.2,90,60,26,30.39,30.24,12,1,12,0.21
2013-12-12,30.2,19.7,11.8,14.1,7.3,1.5,66,58,46,30.36,30.30,12,1,12,0.21
2013-12-13,51.4,26.4,9.7,21.6,10.0,2.9,80,56,19,30.33,30.21,10,1,11,0.04
2013-12-14,42.1,35.4,30.2,34.1,30.8,20.0,93,84,63,30.27,29.74,15,0,15,0.50
2013-12-15,40.6,33.2,29.5,40.1,25.2,0.0,98,73,57,30.09,29.74,15,1,15,0.00
2013-12-16,43.0,33.4,27.9,27.6,22.1,17.5,81,64,44,30.15,30.00,6,0,10,0.08
2013-12-17,42.3,34.9,26.6,32.9,27.4,18.4,96,75,56,30.12,29.94,21,1,21,0.29
2013-12-18,50.0,31.4,22.1,19.3,15.1,8.8,79,53,27,30.24,30.09,16,1,16,0.08
2013-12-19,65.8,37.9,22.1,31.1,19.4,13.7,83,55,15,30.27,30.12,14,1,14,0.04
2013-12-20,66.6,47.4,27.9,41.2,29.5,19.4,87,55,22,30.15,30.03,22,2,22,0.00
2013-12-21,72.0,61.3,46.6,49.9,43.3,32.8,80,53,34,30.06,29.88,11,3,11,0.00
2013-12-22,70.0,57.9,50.2,54.7,49.3,43.5,94,75,46,30.09,29.85,16,3,16,0.87
2013-12-23,54.3,41.5,29.8,53.6,35.9,15.7,98,81,55,30.30,30.00,12,3,12,0.25
2013-12-24,39.7,24.7,10.2,19.0,9.9,-2.7,67,53,34,30.44,30.24,8,2,13,0.00
2013-12-25,48.0,22.5,6.8,22.0,4.2,-5.9,81,49,17,30.44,30.24,11,1,11,0.04
2013-12-26,50.0,31.2,18.0,21.0,13.7,6.7,78,51,22,30.39,30.21,17,2,17,0.00
2013-12-27,57.9,28.7,13.8,29.6,12.0,6.5,85,57,16,30.44,30.36,12,1,12,0.00
2013-12-28,63.3,34.1,17.6,30.9,17.2,9.7,86,57,16,30.41,30.12,10,1,10,0.08
2013-12-29,46.6,40.8,36.1,45.0,36.1,27.7,98,84,64,30.15,29.79,20,2,20,1.37
2013-12-30,39.9,33.9,30.0,34.4,27.2,21.8,88,76,66,30.18,29.94,12,2,12,0.00
2013-12-31,42.8,29.7,21.0,22.0,15.3,8.6,81,58,29,30.33,30.12,13,3,26,0.00
2014-1-1,64.6,32.6,18.1,30.4,16.9,10.1,86,60,17,30.33,30.06,11,1,11,0.00
2014-1-2,43.2,30.4,15.8,37.8,23.5,2.9,83,75,55,30.09,29.65,14,2,14,0.16